COSMOS 2251 DEB, 36614

Orbit data source: Space-Track

COSMOS 2251 DEB, 36614 is space debris in LEO originally from a launch on Wed, 16 Jun 1993 UTC launched from the Plesetsk Missile And Space Complex (PKMTR). The debris from Iridium 33, an American commercial communications satellite, has been tracked extensively since its accidental collision with the defunct Russian satellite Cosmos 2251 in 2009. This event, occurring at high speed in low Earth orbit (LEO), generated thousands of pieces of space debris, significantly increasing the risk of further collisions. The Iridium 33 debris cloud has impacted space traffic management and orbital debris mitigation strategies, making it a subject of ongoing study in space situational awareness.

Loading next visibility...
Identifier
36614, 1993-036BEC
Orbit
LEO
Country
Flag of CISCIS
Related business
Manufacturer
Unknown
Mission
Spacecraft
Bus & Motor
Unknown
Mass
Unknown
Launch date (UTC)
1993-06-16 (33 years ago)
Launch vehicle
Unknown
Launch site
Plesetsk Missile And Space Complex (PKMTR)
Object type
Payload
Rocket body
Debris
Shape & HBR
Unknown shape, 0.1 m
Radar Cross Section
Small (<0.1 m²)

Expand to show TLE details & history
Last TLE update: 6 days ago

TLE from 6 days ago
0 COSMOS 2251 DEB
1 36614U 93036BEC 26139.97623577  .00002308  00000-0  46286-3 0  9990
2 36614  74.0210 231.6864 0015351 266.2574  93.6838 14.62266850679248
Epoch: 2026-05-19T23:25Z
TLE epoch observation values (Epoch: 2026-05-19T23:25:46.770Z)
Latitude
0.00003°
Longitude
2.59911°
Altitude
689.219 km
Speed
7.512 km/s
True Right ascension
15h 26m 44s
True Declination
0° 00' 00"
Sunlit
Object was in full shadow at epoch
Visualization orbit readout
Latitude
Unknown
Longitude
Unknown
Altitude
Unknown
Speed
Unknown
Apparent Right ascension
Unknown
Apparent Declination
Unknown
Sunlit
N/A
Visualization observer readout
Local Sidereal Time
19:14:33
Azimuth
Unknown
Elevation
Unknown
Doppler factor
Unknown
Orbital elements
Apogee altitude
694.301 km
Perigee altitude
672.62 km
Semi-major axis
7,061.597 km
Eccentricity
0.00154
Inclination
74.021°
RAAN
231.6864°
Arg. of periapsis
266.2574°
True anomaly
93.85932°
Mean anomaly
93.6838°
Eccentric anomaly
93.77156°
Mean motion
3.65754 °/min
Orbital period
98.43 mins
BSTAR
0.00046286

Documentation

Showing up to 5 results
|